TimeEDT,TemperatureF,Dew PointF,Humidity,Sea Level PressureIn,VisibilityMPH,Wind Direction,Wind SpeedMPH,Gust SpeedMPH,PrecipitationIn,Events,Conditions,WindDirDegrees,DateUTC
12:52 AM,46.9,44.1,90,30.19,10.0,Calm,Calm,-,N/A,,Clear,0,2013-05-07 04:52:00
1:52 AM,46.0,44.1,93,30.18,10.0,Calm,Calm,-,N/A,,Clear,0,2013-05-07 05:52:00
2:52 AM,45.0,43.0,93,30.17,10.0,Calm,Calm,-,N/A,,Clear,0,2013-05-07 06:52:00
3:35 AM,44.6,42.8,93,30.17,10.0,Calm,Calm,-,N/A,,Partly Cloudy,0,2013-05-07 07:35:00
4:52 AM,43.0,42.1,97,30.17,10.0,Calm,Calm,-,N/A,,Clear,0,2013-05-07 08:52:00
5:14 AM,42.8,41.0,93,30.17,10.0,Calm,Calm,-,N/A,,Partly Cloudy,0,2013-05-07 09:14:00
5:26 AM,42.8,41.0,93,30.17,10.0,Calm,Calm,-,N/A,,Mostly Cloudy,0,2013-05-07 09:26:00
5:52 AM,43.0,41.0,93,30.18,10.0,Calm,Calm,-,N/A,,Overcast,0,2013-05-07 09:52:00
6:52 AM,45.0,43.0,93,30.18,10.0,Calm,Calm,-,N/A,,Mostly Cloudy,0,2013-05-07 10:52:00
7:03 AM,46.4,44.6,93,30.18,10.0,Calm,Calm,-,N/A,,Scattered Clouds,0,2013-05-07 11:03:00
7:52 AM,51.1,46.0,83,30.18,10.0,Calm,Calm,-,N/A,,Clear,0,2013-05-07 11:52:00
8:52 AM,59.0,46.0,62,30.17,10.0,Calm,Calm,-,N/A,,Clear,0,2013-05-07 12:52:00
9:52 AM,66.9,46.9,49,30.17,10.0,Calm,Calm,-,N/A,,Clear,0,2013-05-07 13:52:00
10:52 AM,70.0,48.0,46,30.17,10.0,SSE,4.6,-,N/A,,Clear,150,2013-05-07 14:52:00
12:52 PM,73.0,51.1,46,30.14,10.0,South,11.5,16.1,N/A,,Mostly Cloudy,170,2013-05-07 16:52:00
1:52 PM,75.9,53.1,45,30.12,10.0,SSW,9.2,-,N/A,,Mostly Cloudy,200,2013-05-07 17:52:00
2:52 PM,75.9,53.1,45,30.11,10.0,South,11.5,17.3,N/A,,Mostly Cloudy,170,2013-05-07 18:52:00
3:52 PM,73.0,54.0,51,30.11,10.0,South,11.5,-,N/A,,Mostly Cloudy,180,2013-05-07 19:52:00
4:52 PM,73.0,54.0,51,30.11,10.0,South,15.0,20.7,N/A,,Clear,180,2013-05-07 20:52:00
5:52 PM,72.0,53.1,51,30.12,10.0,South,13.8,20.7,N/A,,Clear,190,2013-05-07 21:52:00
6:52 PM,70.0,54.0,57,30.13,10.0,SSW,8.1,-,N/A,,Clear,200,2013-05-07 22:52:00
7:52 PM,66.9,55.0,66,30.14,10.0,South,6.9,-,N/A,,Clear,170,2013-05-07 23:52:00
8:52 PM,64.0,55.0,73,30.16,10.0,South,4.6,-,N/A,,Clear,180,2013-05-08 00:52:00
9:52 PM,62.1,55.0,78,30.17,10.0,Calm,Calm,-,N/A,,Clear,0,2013-05-08 01:52:00
10:52 PM,59.0,54.0,83,30.18,10.0,Calm,Calm,-,N/A,,Clear,0,2013-05-08 02:52:00
11:52 PM,55.9,54.0,93,30.18,10.0,Calm,Calm,-,N/A,,Clear,0,2013-05-08 03:52:00